[[{"header":{"parameterUnit":"m.s-1","parameterCategory":2,"la1":30.2992,"la2":30.254,"lo1":-89.0895,"lo2":-89.0443,"dy":0.0025,"dx":0.0025,"nx":19,"ny":19,"refTime":"2026-03-22T09:00:00:Z","depth":"0","parameterNumber":2,"parameterNumberName":"U-component_of_CURRENTS"},"data":[0,0,0,-0.1852,-0.1852,-0.1847,-0.1847,-0.1786,-0.1785,0,0,0,0,0,0,0,0,0,0,0,-0.1853,-0.1854,-0.1852,-0.1852,-0.1847,-0.1847,-0.1786,-0.1785,0,0,0,0,0,0,0,0,0,0,0,-0.1853,-0.1854,-0.1854,-0.1852,-0.1847,-0.1847,-0.1786,-0.1802,0,0,0,0,0,0,0,0,0,0,-0.1813,-0.1796,-0.1854,-0.1854,-0.1852,-0.1847,-0.1847,-0.1803,-0.1801,-0.1775,0,-0.178,0,-0.1783,-0.1781,-0.178,0,0,0,-0.1846,-0.1797,-0.1826,-0.1854,-0.1852,-0.1847,-0.1847,-0.1803,-0.18,-0.1772,-0.1779,-0.1777,-0.1782,-0.178,-0.178,-0.1668,-0.1668,0,0,-0.1846,-0.182,-0.1829,-0.1825,-0.1857,-0.1848,-0.1847,-0.1801,-0.1781,-0.1779,-0.1776,-0.1781,-0.178,-0.1779,-0.1669,-0.1668,0,0,0,-0.1851,-0.1819,-0.185,-0.1827,-0.1831,-0.1848,-0.1847,-0.1783,-0.1802,-0.1776,-0.178,-0.1779,-0.1779,-0.167,-0.1669,-0.167,0,0,0,-0.1851,-0.1824,-0.185,-0.183,-0.1833,-0.1807,-0.1829,-0.1806,-0.1801,-0.178,-0.1779,-0.1778,-0.1671,-0.1669,-0.1672,-0.1653,0,0,0,-0.1853,-0.1822,-0.1832,-0.1829,-0.1834,-0.1809,-0.1823,-0.1805,-0.1803,-0.178,-0.1778,-0.1671,-0.167,-0.1673,-0.1655,-0.1648,0,0,0,-0.1813,-0.181,-0.1831,-0.182,-0.1834,-0.1839,-0.1824,-0.1809,-0.1791,-0.1779,-0.1671,-0.1669,-0.1674,-0.1657,-0.1649,-0.1445,-0.1422,0,0,-0.1793,-0.1806,-0.1804,-0.1823,-0.1831,-0.1839,-0.1805,-0.1778,-0.1751,-0.1683,-0.168,-0.1671,-0.1655,-0.1648,-0.135,-0.133,0,0,0,-0.1787,-0.1784,-0.179,-0.1795,-0.1814,-0.1793,-0.1782,-0.1755,-0.1689,-0.1734,-0.1637,-0.1626,-0.1622,-0.1501,-0.1484,-0.1156,-0.1661,-0.1661,-0.1662,-0.1698,-0.1737,-0.1723,-0.1761,-0.1766,-0.1755,-0.1722,-0.1671,-0.1673,-0.163,-0.1603,-0.1561,-0.1428,-0.1414,-0.1078,-0.1585,-0.1585,-0.1585,-0.1585,-0.1646,-0.163,-0.1673,-0.168,-0.1693,-0.1673,-0.1641,-0.1627,-0.1557,-0.1559,-0.1557,-0.1476,-0.1396,-0.1043,-0.1584,-0.1584,-0.1584,-0.1584,-0.1584,-0.1573,-0.157,-0.1589,-0.1598,-0.1588,-0.1606,-0.1545,-0.1535,-0.1536,-0.1516,-0.1393,-0.139,-0.1103,-0.1531,-0.1531,-0.1531,-0.1531,-0.153,-0.153,-0.1478,-0.1499,-0.1471,-0.1503,-0.1489,-0.1482,-0.1475,-0.1457,-0.1399,-0.1348,-0.1347,-0.1002,-0.1544,-0.1572,-0.1528,-0.1529,-0.1529,-0.1529,-0.1529,-0.1346,-0.1375,-0.1328,-0.1311,-0.1291,-0.1199,-0.1288,-0.1206,-0.121,-0.1154,-0.0717,-0.1254,-0.1232,-0.1241,-0.126,-0.1139,-0.1139,-0.1139,-0.1139,-0.1232,-0.1255,-0.1149,-0.1088,-0.105,-0.104,-0.0853,-0.0765,-0.0541,-0.0294,-0.0373,-0.0283,-0.0314,-0.0235,-0.0267,-0.0265,0.0106,0.0108,0.0109,-0.1095,-0.1101,-0.097,-0.0956,-0.091,-0.0826,-0.0565,-0.0219,0.0168,0.0185,0.0049,-0.0004,0.0144,0.0069,0.0197,0.0126,0.0127,0,0]},{"header":{"parameterUnit":"m.s-1","parameterCategory":2,"la1":30.2992,"la2":30.254,"lo1":-89.0895,"lo2":-89.0443,"dy":0.0025,"dx":0.0025,"nx":19,"ny":19,"refTime":"2026-03-22T09:00:00:Z","depth":"0","parameterNumber":3,"parameterNumberName":"V-component_of_CURRENTS"},"data":[0,0,0,-0.0233,-0.0232,-0.0156,-0.0155,0.0014,0.0015,0,0,0,0,0,0,0,0,0,0,0,-0.0258,-0.0258,-0.0233,-0.0232,-0.0156,-0.0155,0.0014,0.0015,0,0,0,0,0,0,0,0,0,0,0,-0.0258,-0.0258,-0.0258,-0.0232,-0.0156,-0.0155,0.0013,-0.0058,0,0,0,0,0,0,0,0,0,0,-0.014,-0.0176,-0.0258,-0.0258,-0.0231,-0.0156,-0.0155,-0.0062,-0.0054,-0.0005,0,-0.0003,0,0.0005,0.0027,0.0028,0,0,0,-0.0216,-0.0183,-0.0168,-0.0258,-0.0231,-0.0156,-0.0186,-0.0058,-0.0048,0.0007,-0.0001,0.0005,0.0008,0.0028,0.0029,0.0099,0.0099,0,0,-0.0221,-0.0232,-0.0175,-0.0163,-0.0222,-0.0188,-0.0184,-0.0053,-0.0042,-0.0001,0.0008,0.0011,0.0029,0.0031,0.01,0.0099,0,0,0,-0.0243,-0.0235,-0.0225,-0.0169,-0.0164,-0.0187,-0.0181,-0.0048,-0.0046,0.001,0.0013,0.003,0.0032,0.01,0.01,-0.0026,0,0,0,-0.0245,-0.025,-0.0227,-0.0231,-0.0167,-0.0114,-0.0179,-0.0055,-0.0041,0.0012,0.003,0.0034,0.0101,0.01,-0.0021,-0.0062,0,0,0,-0.026,-0.0251,-0.0248,-0.0232,-0.0208,-0.0117,-0.0107,-0.0052,-0.0039,0.0028,0.0034,0.0101,0.01,-0.0017,-0.0055,-0.0068,0,0,0,-0.0266,-0.0291,-0.0248,-0.0279,-0.0209,-0.0217,-0.0108,-0.0088,-0.0044,0.0031,0.0101,0.01,-0.0016,-0.005,-0.0065,0.0054,0.0047,0,0,-0.0311,-0.0297,-0.0321,-0.0281,-0.0326,-0.0226,-0.0243,-0.0131,-0.0041,0.0068,0.0069,-0.0023,-0.0054,-0.0067,-0.0018,-0.0023,0,0,0,-0.0345,-0.0362,-0.037,-0.0379,-0.0362,-0.0331,-0.0234,-0.0179,-0.009,-0.0021,-0.0013,-0.0028,-0.0032,0.0047,0.0043,0.0351,0.0094,0.0094,0.0094,-0.04,-0.0412,-0.0459,-0.0466,-0.0464,-0.0396,-0.0361,-0.0258,-0.0168,-0.0153,-0.0124,-0.0209,-0.0128,-0.0129,0.0185,-0.0123,-0.0123,-0.0124,-0.0124,-0.0482,-0.051,-0.0521,-0.057,-0.0542,-0.0537,-0.0447,-0.0384,-0.0302,-0.0227,-0.0225,-0.0081,-0.0141,0.0196,-0.0132,-0.013,-0.0129,-0.0129,-0.0128,-0.0525,-0.0539,-0.0569,-0.0622,-0.0642,-0.0605,-0.0577,-0.0496,-0.0406,-0.0404,-0.0253,-0.0248,0.0048,-0.0389,-0.0389,-0.039,-0.039,-0.039,-0.039,-0.0538,-0.0573,-0.0613,-0.0672,-0.0693,-0.0697,-0.0638,-0.0595,-0.047,-0.0361,-0.0359,0.0072,-0.0289,-0.0279,-0.0395,-0.0394,-0.0393,-0.0393,-0.0393,-0.0557,-0.0573,-0.0633,-0.0664,-0.0707,-0.0676,-0.0675,-0.0552,-0.05,-0.043,0.0097,-0.0316,-0.0249,-0.0242,-0.0228,-0.0325,-0.0325,-0.0325,-0.0325,-0.0543,-0.0567,-0.0602,-0.0635,-0.0664,-0.0646,-0.0509,-0.0355,-0.0011,0.0262,0.0297,0.0418,0.0402,0.0515,0.0505,0.0537,0.0637,0.0639,0.064,-0.0516,-0.0545,-0.0541,-0.0592,-0.0625,-0.0567,-0.0357,0.0042,0.0554,0.0708,0.07,0.0659,0.0864,0.0813,0.1012,0.0973,0.1033,0,0]}],[{"header":{"parameterUnit":"m.s-1","parameterCategory":2,"la1":30.2992,"la2":30.254,"lo1":-89.0895,"lo2":-89.0443,"dy":0.0025,"dx":0.0025,"nx":19,"ny":19,"refTime":"2026-03-22T09:00:00:Z","depth":"2","parameterNumber":2,"parameterNumberName":"U-component_of_CURRENTS"},"data":[0,0,0,-0.242,-0.2415,-0.2311,-0.2312,-0.2346,-0.2346,0,0,0,0,0,0,0,0,0,0,0,-0.251,-0.2509,-0.242,-0.2414,-0.2311,-0.2312,-0.2346,-0.2346,0,0,0,0,0,0,0,0,0,0,0,-0.2511,-0.2509,-0.2508,-0.2414,-0.2311,-0.2312,-0.2346,-0.2402,0,0,0,0,0,0,0,0,0,0,-0.249,-0.2611,-0.251,-0.2508,-0.2412,-0.2311,-0.2312,-0.2404,-0.2399,-0.2416,0,-0.2377,0,-0.2304,-0.2345,-0.2345,0,0,0,-0.2494,-0.2616,-0.2471,-0.2508,-0.241,-0.2311,-0.238,-0.24,-0.2394,-0.2409,-0.2376,-0.2374,-0.2304,-0.2345,-0.2345,-0.2338,-0.2338,0,0,-0.25,-0.2613,-0.2474,-0.2466,-0.2355,-0.2383,-0.2376,-0.2396,-0.2451,-0.2376,-0.2373,-0.2305,-0.2345,-0.2344,-0.2338,-0.2338,0,0,0,-0.2462,-0.2619,-0.2475,-0.2468,-0.2402,-0.2378,-0.237,-0.2454,-0.237,-0.2373,-0.2305,-0.2344,-0.2344,-0.2338,-0.2338,-0.2361,0,0,0,-0.247,-0.2586,-0.2477,-0.2561,-0.24,-0.2422,-0.243,-0.2372,-0.2368,-0.2305,-0.2344,-0.2344,-0.2338,-0.2338,-0.236,-0.235,0,0,0,-0.252,-0.2596,-0.2547,-0.2564,-0.2462,-0.2417,-0.2345,-0.2371,-0.2324,-0.2345,-0.2344,-0.2338,-0.2338,-0.236,-0.2349,-0.2332,0,0,0,-0.2689,-0.255,-0.2552,-0.2468,-0.2461,-0.2342,-0.2344,-0.2329,-0.2348,-0.2344,-0.2338,-0.2338,-0.2359,-0.2349,-0.2332,-0.2079,-0.2059,0,0,-0.2559,-0.2542,-0.2491,-0.2481,-0.2351,-0.2364,-0.2351,-0.2376,-0.2359,-0.2357,-0.2356,-0.236,-0.2349,-0.2332,-0.2089,-0.2067,0,0,0,-0.2481,-0.2496,-0.2467,-0.2422,-0.2307,-0.2309,-0.2322,-0.2346,-0.236,-0.2347,-0.2357,-0.2349,-0.2337,-0.2185,-0.2169,-0.2339,-0.2339,-0.2339,-0.2339,-0.2487,-0.2438,-0.2381,-0.234,-0.2312,-0.2295,-0.2318,-0.2346,-0.2364,-0.237,-0.2366,-0.2364,-0.2202,-0.2187,-0.2375,-0.2375,-0.2375,-0.2375,-0.2375,-0.2314,-0.2283,-0.2336,-0.2263,-0.2249,-0.2261,-0.23,-0.2336,-0.2367,-0.2379,-0.2367,-0.2214,-0.217,-0.2377,-0.2377,-0.2376,-0.2376,-0.2376,-0.2376,-0.2305,-0.2264,-0.2255,-0.2175,-0.2194,-0.224,-0.2274,-0.2335,-0.2353,-0.2359,-0.2188,-0.2184,-0.2361,-0.237,-0.2369,-0.2369,-0.2369,-0.2369,-0.2369,-0.2205,-0.2185,-0.2155,-0.2133,-0.2137,-0.2178,-0.2253,-0.2257,-0.2195,-0.2169,-0.2166,-0.2361,-0.2361,-0.2359,-0.2367,-0.2368,-0.2368,-0.2368,-0.2368,-0.2194,-0.2163,-0.2104,-0.209,-0.2039,-0.1937,-0.2071,-0.1965,-0.1989,-0.1874,-0.2038,-0.2047,-0.2005,-0.2014,-0.2003,-0.1918,-0.1918,-0.1918,-0.1918,-0.219,-0.2166,-0.2047,-0.1959,-0.188,-0.1809,-0.1607,-0.1562,-0.1604,-0.1626,-0.164,-0.1591,-0.1614,-0.155,-0.157,-0.1551,-0.1349,-0.1348,-0.1348,-0.2182,-0.2138,-0.205,-0.191,-0.176,-0.1608,-0.1291,-0.1076,-0.1128,-0.1337,-0.166,-0.1857,-0.1819,-0.1841,-0.1772,-0.1794,-0.1774,0,0]},{"header":{"parameterUnit":"m.s-1","parameterCategory":2,"la1":30.2992,"la2":30.254,"lo1":-89.0895,"lo2":-89.0443,"dy":0.0025,"dx":0.0025,"nx":19,"ny":19,"refTime":"2026-03-22T09:00:00:Z","depth":"2","parameterNumber":3,"parameterNumberName":"V-component_of_CURRENTS"},"data":[0,0,0,-0.0595,-0.0594,-0.0501,-0.0501,-0.0307,-0.0305,0,0,0,0,0,0,0,0,0,0,0,-0.0582,-0.0582,-0.0595,-0.0594,-0.0502,-0.05,-0.0307,-0.0305,0,0,0,0,0,0,0,0,0,0,0,-0.0583,-0.0582,-0.0581,-0.0594,-0.0502,-0.05,-0.0307,-0.0384,0,0,0,0,0,0,0,0,0,0,-0.0479,-0.0495,-0.0582,-0.0581,-0.0594,-0.0502,-0.05,-0.0388,-0.0379,-0.0343,0,-0.0327,0,-0.0352,-0.0295,-0.0294,0,0,0,-0.0545,-0.0502,-0.0495,-0.0581,-0.0594,-0.0502,-0.0529,-0.0383,-0.0373,-0.0331,-0.0325,-0.032,-0.0348,-0.0294,-0.0293,-0.0175,-0.0175,0,0,-0.055,-0.0545,-0.0502,-0.0489,-0.0568,-0.0533,-0.0527,-0.0378,-0.0354,-0.0325,-0.0316,-0.0345,-0.0293,-0.0292,-0.0175,-0.0175,0,0,0,-0.0598,-0.0548,-0.0544,-0.0495,-0.0506,-0.0531,-0.0525,-0.0359,-0.0363,-0.0315,-0.0343,-0.0292,-0.029,-0.0175,-0.0175,-0.0238,0,0,0,-0.0599,-0.0581,-0.0547,-0.054,-0.051,-0.0446,-0.051,-0.0371,-0.0358,-0.0344,-0.0292,-0.0289,-0.0175,-0.0175,-0.0237,-0.027,0,0,0,-0.0587,-0.0581,-0.0573,-0.054,-0.053,-0.0449,-0.0441,-0.0368,-0.0377,-0.0294,-0.0288,-0.0175,-0.0175,-0.0235,-0.0267,-0.0154,0,0,0,-0.058,-0.0609,-0.0571,-0.0589,-0.0532,-0.0521,-0.0442,-0.0403,-0.034,-0.0291,-0.0175,-0.0175,-0.0235,-0.0266,-0.0155,-0.0084,-0.0076,0,0,-0.0634,-0.0614,-0.0626,-0.0594,-0.0609,-0.0531,-0.0503,-0.0386,-0.0316,-0.0211,-0.0208,-0.0237,-0.0267,-0.0154,-0.0062,-0.0054,0,0,0,-0.0656,-0.0658,-0.065,-0.0639,-0.0615,-0.057,-0.0476,-0.0405,-0.0291,-0.0288,-0.0211,-0.0228,-0.0154,-0.0112,-0.0106,-0.0173,-0.0173,-0.0173,-0.0173,-0.0716,-0.0704,-0.0716,-0.0693,-0.0673,-0.0583,-0.0515,-0.0398,-0.0324,-0.0281,-0.026,-0.0197,-0.0157,-0.015,-0.0234,-0.0234,-0.0235,-0.0235,-0.0235,-0.0798,-0.0813,-0.0763,-0.078,-0.0723,-0.0687,-0.0547,-0.0469,-0.0298,-0.0286,-0.0209,-0.0161,-0.0147,-0.0239,-0.0239,-0.0238,-0.0237,-0.0237,-0.0237,-0.0851,-0.0864,-0.0849,-0.0851,-0.0821,-0.0743,-0.0643,-0.0514,-0.0356,-0.0298,-0.0121,-0.0119,-0.02,-0.0203,-0.0203,-0.0202,-0.0202,-0.0202,-0.0201,-0.0927,-0.0915,-0.0932,-0.0921,-0.0915,-0.0865,-0.0677,-0.055,-0.0298,-0.0168,-0.0165,-0.0183,-0.0185,-0.0194,-0.0196,-0.0197,-0.0198,-0.0198,-0.0199,-0.1003,-0.0988,-0.1023,-0.1024,-0.1005,-0.0971,-0.0791,-0.046,-0.0249,-0.0108,-0.0053,-0.0058,-0.0004,-0.0008,-0.0011,0.0035,0.0035,0.0035,0.0035,-0.1044,-0.1044,-0.108,-0.1098,-0.1102,-0.1022,-0.0788,-0.0432,-0.0101,0.0037,0.0036,-0.0003,-0.0011,0.0039,0.0034,0.0032,0.0088,0.0088,0.0088,-0.1066,-0.1084,-0.1112,-0.1134,-0.1153,-0.1066,-0.0834,-0.0308,0.0103,0.0083,-0.0028,0.0053,-0.0009,-0.0021,0.0055,0.0047,0.0043,0,0]}],[{"header":{"parameterUnit":"m.s-1","parameterCategory":2,"la1":30.2992,"la2":30.254,"lo1":-89.0895,"lo2":-89.0443,"dy":0.0025,"dx":0.0025,"nx":19,"ny":19,"refTime":"2026-03-22T09:00:00:Z","depth":"4","parameterNumber":2,"parameterNumberName":"U-component_of_CURRENTS"},"data":[0,0,0,-0.123,-0.1233,-0.1415,-0.1416,-0.1583,-0.1584,0,0,0,0,0,0,0,0,0,0,0,-0.1172,-0.1173,-0.1229,-0.1233,-0.1415,-0.1416,-0.1583,-0.1584,0,0,0,0,0,0,0,0,0,0,0,-0.1172,-0.1173,-0.1174,-0.1234,-0.1415,-0.1416,-0.1583,-0.1465,0,0,0,0,0,0,0,0,0,0,-0.1298,-0.1251,-0.1173,-0.1174,-0.1235,-0.1415,-0.1417,-0.146,-0.1472,-0.1477,0,-0.1506,0,-0.1539,-0.1593,-0.1593,0,0,0,-0.1248,-0.1242,-0.1285,-0.1175,-0.1236,-0.1415,-0.1337,-0.1468,-0.1481,-0.1492,-0.1509,-0.1515,-0.1542,-0.1593,-0.1594,-0.172,-0.1721,0,0,-0.1238,-0.1212,-0.1276,-0.1293,-0.1284,-0.1331,-0.1343,-0.1477,-0.1492,-0.1509,-0.152,-0.1545,-0.1594,-0.1595,-0.172,-0.172,0,0,0,-0.1199,-0.1205,-0.1247,-0.1286,-0.1319,-0.1336,-0.135,-0.1487,-0.15,-0.1522,-0.1547,-0.1595,-0.1596,-0.1719,-0.172,-0.1733,0,0,0,-0.1194,-0.1181,-0.1242,-0.1229,-0.1317,-0.1415,-0.1356,-0.1491,-0.1507,-0.1546,-0.1595,-0.1598,-0.1719,-0.172,-0.1732,-0.1705,0,0,0,-0.1164,-0.1178,-0.1198,-0.1227,-0.1299,-0.1413,-0.1436,-0.1496,-0.1521,-0.1593,-0.1598,-0.1718,-0.1719,-0.1731,-0.1705,-0.1703,0,0,0,-0.1132,-0.1168,-0.1198,-0.1259,-0.1297,-0.141,-0.1436,-0.1534,-0.1598,-0.1596,-0.1719,-0.172,-0.173,-0.1704,-0.1702,-0.1465,0,0,0,-0.1155,-0.117,-0.1209,-0.1239,-0.1333,-0.1385,-0.1489,-0.1582,-0.1612,-0.1671,-0.1675,-0.1732,-0.1704,-0.1703,-0.1532,0,0,0,0,-0.1202,-0.1218,-0.1257,-0.1323,-0.1409,-0.1482,-0.1574,-0.1611,-0.1694,-0.1653,-0.1751,-0.1732,-0.1731,-0.1593,-0.1725,-0.1725,-0.1725,-0.1725,-0.1725,-0.1188,-0.1241,-0.1302,-0.1373,-0.1448,-0.156,-0.1618,-0.168,-0.172,-0.1757,-0.1759,-0.1782,-0.164,-0.1793,-0.1793,-0.1793,-0.1793,-0.1793,-0.1793,-0.1206,-0.1228,-0.1314,-0.1385,-0.1473,-0.1562,-0.1665,-0.1704,-0.1766,-0.1788,-0.1787,-0.1635,-0.1795,-0.1795,-0.1794,-0.1794,-0.1794,-0.1794,-0.1794,-0.1169,-0.1179,-0.125,-0.1348,-0.1444,-0.1553,-0.1599,-0.1692,-0.1756,-0.177,-0.1627,-0.1781,-0.1761,-0.1785,-0.1785,-0.1785,-0.1785,-0.1785,-0.1785,-0.1087,-0.1154,-0.1189,-0.1298,-0.1354,-0.1437,-0.1563,-0.1582,-0.1673,-0.1592,-0.1773,-0.1779,-0.1779,-0.176,-0.1783,-0.1784,-0.1784,-0.1784,-0.1784,-0.0996,-0.104,-0.1074,-0.1124,-0.1232,-0.1278,-0.1422,-0.1414,-0.1418,-0.1377,-0.1496,-0.1511,-0.1473,-0.1481,-0.145,-0.1382,-0.1379,-0.1376,0,-0.0915,-0.0943,-0.0964,-0.1002,-0.1037,-0.117,-0.1111,-0.1164,-0.1243,-0.1209,-0.1432,-0.1568,-0.1577,-0.1539,-0.1541,-0.1505,0,0,0,-0.0848,-0.0867,-0.0841,-0.0902,-0.094,-0.0986,-0.1087,-0.1045,-0.1248,-0.1156,-0.13,-0.132,-0.1578,-0.1779,-0.1757,-0.1757,-0.1725,0,0]},{"header":{"parameterUnit":"m.s-1","parameterCategory":2,"la1":30.2992,"la2":30.254,"lo1":-89.0895,"lo2":-89.0443,"dy":0.0025,"dx":0.0025,"nx":19,"ny":19,"refTime":"2026-03-22T09:00:00:Z","depth":"4","parameterNumber":3,"parameterNumberName":"V-component_of_CURRENTS"},"data":[0,0,0,-0.0496,-0.0496,-0.0488,-0.0488,-0.0407,-0.0407,0,0,0,0,0,0,0,0,0,0,0,-0.0498,-0.0498,-0.0496,-0.0496,-0.0488,-0.0488,-0.0408,-0.0407,0,0,0,0,0,0,0,0,0,0,0,-0.0498,-0.0498,-0.0498,-0.0496,-0.0488,-0.0488,-0.0408,-0.0428,0,0,0,0,0,0,0,0,0,0,-0.0444,-0.0471,-0.0498,-0.0498,-0.0496,-0.0488,-0.0488,-0.043,-0.0427,-0.0395,0,-0.0404,0,-0.0407,-0.0401,-0.04,0,0,0,-0.0484,-0.0473,-0.0463,-0.0498,-0.0496,-0.0488,-0.0488,-0.0429,-0.0425,-0.0391,-0.0403,-0.04,-0.0406,-0.04,-0.04,-0.0326,-0.0326,0,0,-0.0485,-0.0499,-0.0466,-0.0461,-0.0506,-0.0489,-0.0488,-0.0427,-0.0432,-0.0403,-0.0399,-0.0404,-0.04,-0.0399,-0.0326,-0.0326,0,0,0,-0.0494,-0.05,-0.0492,-0.0464,-0.047,-0.0489,-0.0488,-0.0435,-0.043,-0.0398,-0.0404,-0.0399,-0.0398,-0.0326,-0.0326,-0.0379,0,0,0,-0.0494,-0.0506,-0.0493,-0.0501,-0.0472,-0.0465,-0.0497,-0.0434,-0.0428,-0.0404,-0.0399,-0.0397,-0.0326,-0.0326,-0.0378,-0.0424,0,0,0,-0.0496,-0.0506,-0.0507,-0.0502,-0.0503,-0.0466,-0.0459,-0.0433,-0.0431,-0.04,-0.0397,-0.0326,-0.0326,-0.0377,-0.0421,-0.0367,0,0,0,-0.0507,-0.0524,-0.0508,-0.0529,-0.0504,-0.0499,-0.0459,-0.0451,-0.0431,-0.0399,-0.0326,-0.0326,-0.0377,-0.042,-0.0367,-0.0366,0,0,0,-0.0533,-0.0528,-0.0539,-0.0524,-0.0539,-0.0499,-0.0497,-0.0454,-0.0408,-0.0339,-0.0338,-0.0379,-0.0421,-0.0367,-0.0344,0,0,0,0,-0.055,-0.0564,-0.0564,-0.0571,-0.0552,-0.0541,-0.0497,-0.046,-0.0404,-0.0397,-0.0356,-0.0381,-0.0345,-0.0342,-0.0324,-0.0324,-0.0324,-0.0324,-0.0324,-0.0595,-0.059,-0.0615,-0.0611,-0.0605,-0.0561,-0.0533,-0.0469,-0.0424,-0.0402,-0.0407,-0.0385,-0.0384,-0.0373,-0.0374,-0.0374,-0.0374,-0.0374,-0.0374,-0.0639,-0.0654,-0.0656,-0.0682,-0.0659,-0.0649,-0.0568,-0.0526,-0.0444,-0.0429,-0.0389,-0.0379,-0.0379,-0.0378,-0.0377,-0.0377,-0.0377,-0.0376,-0.0376,-0.0664,-0.0673,-0.0696,-0.073,-0.0743,-0.071,-0.0681,-0.0608,-0.0501,-0.0477,-0.0406,-0.0399,-0.041,-0.0431,-0.0431,-0.0431,-0.0431,-0.0431,-0.0431,-0.0674,-0.0696,-0.0747,-0.0783,-0.0814,-0.0819,-0.0748,-0.0675,-0.0558,-0.0472,-0.048,-0.0403,-0.0401,-0.0411,-0.0431,-0.0431,-0.0431,-0.0431,-0.0431,-0.0699,-0.0716,-0.0786,-0.0833,-0.0899,-0.0893,-0.084,-0.0663,-0.0566,-0.0449,-0.0431,-0.0431,-0.04,-0.0398,-0.0407,-0.0427,-0.0427,-0.0427,0,-0.0712,-0.0727,-0.0825,-0.0902,-0.0949,-0.0936,-0.082,-0.071,-0.0542,-0.0544,-0.0557,-0.0547,-0.0543,-0.0519,-0.0516,-0.0534,0,0,0,-0.0728,-0.0755,-0.0829,-0.0915,-0.0975,-0.0858,-0.0787,-0.0715,-0.0584,-0.0461,-0.0428,-0.0427,-0.0471,-0.043,-0.0382,-0.038,-0.0393,0,0]}]]